Year,Month,Day,Hour,Minute,Value (Times are PST for temperature in C)
2016,04,01,00,00,10.40
2016,04,01,00,01,10.40
2016,04,01,00,02,10.30
2016,04,01,00,03,10.30
2016,04,01,00,04,10.30
2016,04,01,00,05,10.30
2016,04,01,00,06,10.30
2016,04,01,00,07,10.30
2016,04,01,00,08,10.20
2016,04,01,00,09,10.20
2016,04,01,00,10,10.20
2016,04,01,00,11,10.20
2016,04,01,00,12,10.20
2016,04,01,00,13,10.10
2016,04,01,00,14,10.10
2016,04,01,00,15,10.10
2016,04,01,00,16,10.10
2016,04,01,00,17,10.10
2016,04,01,00,18,10.10
2016,04,01,00,19,10.10
2016,04,01,00,20,10.00
2016,04,01,00,21,10.00
2016,04,01,00,22,10.00
2016,04,01,00,23,10.00
2016,04,01,00,24,10.00
2016,04,01,00,25,9.90
2016,04,01,00,26,9.90
2016,04,01,00,27,9.90
2016,04,01,00,28,9.90
2016,04,01,00,29,9.90
2016,04,01,00,30,9.90
2016,04,01,00,31,9.90
2016,04,01,00,32,9.90
2016,04,01,00,33,9.80
2016,04,01,00,34,9.80
2016,04,01,00,35,9.80
2016,04,01,00,36,9.80
2016,04,01,00,37,9.80
2016,04,01,00,38,9.80
2016,04,01,00,39,9.80
2016,04,01,00,40,9.70
2016,04,01,00,41,9.70
2016,04,01,00,42,9.70
2016,04,01,00,43,9.70
2016,04,01,00,44,9.70
2016,04,01,00,45,9.60
2016,04,01,00,46,9.60
2016,04,01,00,47,9.60
2016,04,01,00,48,9.60
2016,04,01,00,49,9.60
2016,04,01,00,50,9.50
2016,04,01,00,51,9.50
2016,04,01,00,52,9.50
2016,04,01,00,53,9.50
2016,04,01,00,54,9.40
2016,04,01,00,55,9.40
2016,04,01,00,56,9.40
2016,04,01,00,57,9.40
2016,04,01,00,58,9.40
2016,04,01,00,59,9.40
2016,04,01,01,00,9.30
2016,04,01,01,01,9.30
2016,04,01,01,02,9.30
2016,04,01,01,03,9.30
2016,04,01,01,04,9.30
2016,04,01,01,05,9.30
2016,04,01,01,06,9.30
2016,04,01,01,07,9.30
2016,04,01,01,08,9.30
2016,04,01,01,09,9.20
2016,04,01,01,10,9.20
2016,04,01,01,11,9.20
2016,04,01,01,12,9.20
2016,04,01,01,13,9.20
2016,04,01,01,14,9.20
2016,04,01,01,15,9.20
2016,04,01,01,16,9.20
2016,04,01,01,17,9.20
2016,04,01,01,18,9.10
2016,04,01,01,19,9.10
2016,04,01,01,20,9.10
2016,04,01,01,21,9.10
2016,04,01,01,22,9.10
2016,04,01,01,23,9.10
2016,04,01,01,24,9.10
2016,04,01,01,25,9.10
2016,04,01,01,26,9.10
2016,04,01,01,27,9.10
2016,04,01,01,28,9.10
2016,04,01,01,29,9.10
2016,04,01,01,30,9.10
2016,04,01,01,31,9.00
2016,04,01,01,32,9.10
2016,04,01,01,33,9.00
2016,04,01,01,34,9.00
2016,04,01,01,35,9.00
2016,04,01,01,36,9.00
2016,04,01,01,37,9.00
2016,04,01,01,38,8.90
2016,04,01,01,39,8.90
2016,04,01,01,40,8.90
2016,04,01,01,41,8.90
2016,04,01,01,42,8.80
2016,04,01,01,43,8.80
2016,04,01,01,44,8.80
2016,04,01,01,45,8.80
2016,04,01,01,46,8.80
2016,04,01,01,47,8.80
2016,04,01,01,48,8.70
2016,04,01,01,49,8.70
2016,04,01,01,50,8.70
2016,04,01,01,51,8.70
2016,04,01,01,52,8.80
2016,04,01,01,53,8.80
2016,04,01,01,54,8.80
2016,04,01,01,55,8.80
2016,04,01,01,56,8.80
2016,04,01,01,57,8.80
2016,04,01,01,58,8.80
2016,04,01,01,59,8.80
2016,04,01,02,00,8.80
2016,04,01,02,01,8.80
2016,04,01,02,02,8.80
2016,04,01,02,03,8.80
2016,04,01,02,04,8.80
2016,04,01,02,05,8.70
2016,04,01,02,06,8.70
2016,04,01,02,07,8.70
2016,04,01,02,08,8.70
2016,04,01,02,09,8.70
2016,04,01,02,10,8.70
2016,04,01,02,11,8.60
2016,04,01,02,12,8.60
2016,04,01,02,13,8.60
2016,04,01,02,14,8.60
2016,04,01,02,15,8.60
2016,04,01,02,16,8.50
2016,04,01,02,17,8.50
2016,04,01,02,18,8.50
2016,04,01,02,19,8.40
2016,04,01,02,20,8.40
2016,04,01,02,21,8.40
2016,04,01,02,22,8.40
2016,04,01,02,23,8.40
2016,04,01,02,24,8.40
2016,04,01,02,25,8.40
2016,04,01,02,26,8.40
2016,04,01,02,27,8.30
2016,04,01,02,28,8.30
2016,04,01,02,29,8.30
2016,04,01,02,30,8.30
2016,04,01,02,31,8.30
2016,04,01,02,32,8.30
2016,04,01,02,33,8.20
2016,04,01,02,34,8.20
2016,04,01,02,35,8.20
2016,04,01,02,36,8.20
2016,04,01,02,37,8.20
2016,04,01,02,38,8.20
2016,04,01,02,39,8.20
2016,04,01,02,40,8.20
2016,04,01,02,41,8.20
2016,04,01,02,42,8.20
2016,04,01,02,43,8.30
2016,04,01,02,44,8.30
2016,04,01,02,45,8.30
2016,04,01,02,46,8.30
2016,04,01,02,47,8.30
2016,04,01,02,48,8.30
2016,04,01,02,49,8.30
2016,04,01,02,50,8.30
2016,04,01,02,51,8.30
2016,04,01,02,52,8.30
2016,04,01,02,53,8.30
2016,04,01,02,54,8.30
2016,04,01,02,55,8.30
2016,04,01,02,56,8.30
2016,04,01,02,57,8.40
2016,04,01,02,58,8.30
2016,04,01,02,59,8.30
2016,04,01,03,00,8.30
2016,04,01,03,01,8.30
2016,04,01,03,02,8.40
2016,04,01,03,03,8.40
2016,04,01,03,04,8.40
2016,04,01,03,05,8.50
2016,04,01,03,06,8.50
2016,04,01,03,07,8.50
2016,04,01,03,08,8.60
2016,04,01,03,09,8.60
2016,04,01,03,10,8.60
2016,04,01,03,11,8.60
2016,04,01,03,12,8.60
2016,04,01,03,13,8.60
2016,04,01,03,14,8.50
2016,04,01,03,15,8.50
2016,04,01,03,16,8.50
2016,04,01,03,17,8.50
2016,04,01,03,18,8.50
2016,04,01,03,19,8.50
2016,04,01,03,20,8.60
2016,04,01,03,21,8.60
2016,04,01,03,22,8.70
2016,04,01,03,23,8.80
2016,04,01,03,24,8.80
2016,04,01,03,25,8.80
2016,04,01,03,26,8.80
2016,04,01,03,27,8.80
2016,04,01,03,28,8.80
2016,04,01,03,29,8.80
2016,04,01,03,30,8.90
2016,04,01,03,31,8.90
2016,04,01,03,32,8.90
2016,04,01,03,33,9.00
2016,04,01,03,34,8.90
2016,04,01,03,35,8.80
2016,04,01,03,36,8.70
2016,04,01,03,37,8.60
2016,04,01,03,38,8.50
2016,04,01,03,39,8.40
2016,04,01,03,40,8.30
2016,04,01,03,41,8.20
2016,04,01,03,42,8.20
2016,04,01,03,43,8.10
2016,04,01,03,44,8.10
2016,04,01,03,45,8.00
2016,04,01,03,46,8.00
2016,04,01,03,47,7.90
2016,04,01,03,48,7.90
2016,04,01,03,49,7.80
2016,04,01,03,50,7.80
2016,04,01,03,51,7.80
2016,04,01,03,52,7.80
2016,04,01,03,53,7.70
2016,04,01,03,54,7.70
2016,04,01,03,55,7.70
2016,04,01,03,56,7.80
2016,04,01,03,57,7.80
2016,04,01,03,58,7.80
2016,04,01,03,59,7.90
2016,04,01,04,00,7.90
2016,04,01,04,01,7.90
2016,04,01,04,02,8.00
2016,04,01,04,03,8.00
2016,04,01,04,04,8.00
2016,04,01,04,05,8.10
2016,04,01,04,06,8.00
2016,04,01,04,07,8.00
2016,04,01,04,08,8.00
2016,04,01,04,09,8.00
2016,04,01,04,10,8.00
2016,04,01,04,11,8.00
2016,04,01,04,12,8.10
2016,04,01,04,13,8.10
2016,04,01,04,14,8.10
2016,04,01,04,15,8.10
2016,04,01,04,16,8.10
2016,04,01,04,17,8.00
2016,04,01,04,18,8.00
2016,04,01,04,19,8.00
2016,04,01,04,20,8.00
2016,04,01,04,21,8.10
2016,04,01,04,22,8.10
2016,04,01,04,23,8.10
2016,04,01,04,24,8.10
2016,04,01,04,25,8.00
2016,04,01,04,26,8.00
2016,04,01,04,27,8.00
2016,04,01,04,28,8.00
2016,04,01,04,29,8.00
2016,04,01,04,30,8.00
2016,04,01,04,31,8.10
2016,04,01,04,32,8.10
2016,04,01,04,33,8.10
2016,04,01,04,34,8.00
2016,04,01,04,35,8.00
2016,04,01,04,36,7.90
2016,04,01,04,37,7.90
2016,04,01,04,38,7.80
2016,04,01,04,39,7.80
2016,04,01,04,40,7.70
2016,04,01,04,41,7.70
2016,04,01,04,42,7.60
2016,04,01,04,43,7.60
2016,04,01,04,44,7.50
2016,04,01,04,45,7.40
2016,04,01,04,46,7.40
2016,04,01,04,47,7.30
2016,04,01,04,48,7.30
2016,04,01,04,49,7.20
2016,04,01,04,50,7.20
2016,04,01,04,51,7.10
2016,04,01,04,52,7.10
2016,04,01,04,53,7.10
2016,04,01,04,54,7.00
2016,04,01,04,55,7.00
2016,04,01,04,56,7.00
2016,04,01,04,57,7.00
2016,04,01,04,58,7.00
2016,04,01,04,59,7.00
2016,04,01,05,00,7.00
2016,04,01,05,01,7.00
2016,04,01,05,02,7.00
2016,04,01,05,03,7.00
2016,04,01,05,04,7.00
2016,04,01,05,05,7.00
2016,04,01,05,06,7.00
2016,04,01,05,07,7.00
2016,04,01,05,08,7.00
2016,04,01,05,09,7.00
2016,04,01,05,10,7.00
2016,04,01,05,11,6.90
2016,04,01,05,12,6.90
2016,04,01,05,13,6.90
2016,04,01,05,14,6.90
2016,04,01,05,15,6.90
2016,04,01,05,16,6.90
2016,04,01,05,17,6.90
2016,04,01,05,18,6.90
2016,04,01,05,19,6.90
2016,04,01,05,20,6.90
2016,04,01,05,21,6.80
2016,04,01,05,22,6.80
2016,04,01,05,23,6.80
2016,04,01,05,24,6.80
2016,04,01,05,25,6.80
2016,04,01,05,26,6.90
2016,04,01,05,27,6.90
2016,04,01,05,28,6.90
2016,04,01,05,29,6.90
2016,04,01,05,30,6.90
2016,04,01,05,31,6.90
2016,04,01,05,32,6.90
2016,04,01,05,33,6.90
2016,04,01,05,34,6.80
2016,04,01,05,35,6.80
2016,04,01,05,36,6.80
2016,04,01,05,37,6.80
2016,04,01,05,38,6.80
2016,04,01,05,39,6.80
2016,04,01,05,40,6.80
2016,04,01,05,41,6.70
2016,04,01,05,42,6.70
2016,04,01,05,43,6.70
2016,04,01,05,44,6.70
2016,04,01,05,45,6.70
2016,04,01,05,46,6.70
2016,04,01,05,47,6.60
2016,04,01,05,48,6.60
2016,04,01,05,49,6.60
2016,04,01,05,50,6.60
2016,04,01,05,51,6.60
2016,04,01,05,52,6.60
2016,04,01,05,53,6.60
2016,04,01,05,54,6.60
2016,04,01,05,55,6.60
2016,04,01,05,56,6.50
2016,04,01,05,57,6.50
2016,04,01,05,58,6.50
2016,04,01,05,59,6.50
2016,04,01,06,00,6.50
2016,04,01,06,01,6.50
2016,04,01,06,02,6.50
2016,04,01,06,03,6.50
2016,04,01,06,04,6.50
2016,04,01,06,05,6.40
2016,04,01,06,06,6.40
2016,04,01,06,07,6.40
2016,04,01,06,08,6.40
2016,04,01,06,09,6.40
2016,04,01,06,10,6.40
2016,04,01,06,11,6.40
2016,04,01,06,12,6.40
2016,04,01,06,13,6.40
2016,04,01,06,14,6.40
2016,04,01,06,15,6.40
2016,04,01,06,16,6.40
2016,04,01,06,17,6.30
2016,04,01,06,18,6.30
2016,04,01,06,19,6.30
2016,04,01,06,20,6.30
2016,04,01,06,21,6.30
2016,04,01,06,22,6.30
2016,04,01,06,23,6.30
2016,04,01,06,24,6.30
2016,04,01,06,25,6.30
2016,04,01,06,26,6.30
2016,04,01,06,27,6.30
2016,04,01,06,28,6.40
2016,04,01,06,29,6.40
2016,04,01,06,30,6.40
2016,04,01,06,31,6.30
2016,04,01,06,32,6.30
2016,04,01,06,33,6.30
2016,04,01,06,34,6.30
2016,04,01,06,35,6.30
2016,04,01,06,36,6.30
2016,04,01,06,37,6.30
2016,04,01,06,38,6.30
2016,04,01,06,39,6.30
2016,04,01,06,40,6.30
2016,04,01,06,41,6.30
2016,04,01,06,42,6.30
2016,04,01,06,43,6.30
2016,04,01,06,44,6.20
2016,04,01,06,45,6.20
2016,04,01,06,46,6.20
2016,04,01,06,47,6.20
2016,04,01,06,48,6.20
2016,04,01,06,49,6.20
2016,04,01,06,50,6.20
2016,04,01,06,51,6.20
2016,04,01,06,52,6.20
2016,04,01,06,53,6.20
2016,04,01,06,54,6.20
2016,04,01,06,55,6.20
2016,04,01,06,56,6.20
2016,04,01,06,57,6.10
2016,04,01,06,58,6.10
2016,04,01,06,59,6.10
2016,04,01,07,00,6.10
2016,04,01,07,01,6.10
2016,04,01,07,02,6.00
2016,04,01,07,03,6.00
2016,04,01,07,04,6.00
2016,04,01,07,05,6.00
2016,04,01,07,06,6.00
2016,04,01,07,07,5.90
2016,04,01,07,08,5.90
2016,04,01,07,09,5.90
2016,04,01,07,10,5.90
2016,04,01,07,11,5.90
2016,04,01,07,12,5.90
2016,04,01,07,13,5.90
2016,04,01,07,14,6.00
2016,04,01,07,15,6.00
2016,04,01,07,16,6.00
2016,04,01,07,17,6.00
2016,04,01,07,18,6.00
2016,04,01,07,19,6.00
2016,04,01,07,20,6.00
2016,04,01,07,21,6.00
2016,04,01,07,22,6.00
2016,04,01,07,23,6.00
2016,04,01,07,24,6.00
2016,04,01,07,25,6.10
2016,04,01,07,26,6.10
2016,04,01,07,27,6.10
2016,04,01,07,28,6.10
2016,04,01,07,29,6.20
2016,04,01,07,30,6.20
2016,04,01,07,31,6.20
2016,04,01,07,32,6.30
2016,04,01,07,33,6.30
2016,04,01,07,34,6.40
2016,04,01,07,35,6.40
2016,04,01,07,36,6.50
2016,04,01,07,37,6.50
2016,04,01,07,38,6.60
2016,04,01,07,39,6.70
2016,04,01,07,40,6.80
2016,04,01,07,41,6.80
2016,04,01,07,42,6.80
2016,04,01,07,43,6.90
2016,04,01,07,44,6.90
2016,04,01,07,45,6.90
2016,04,01,07,46,6.90
2016,04,01,07,47,6.90
2016,04,01,07,48,6.90
2016,04,01,07,49,6.90
2016,04,01,07,50,6.90
2016,04,01,07,51,6.90
2016,04,01,07,52,6.90
2016,04,01,07,53,6.90
2016,04,01,07,54,6.90
2016,04,01,07,55,6.90
2016,04,01,07,56,7.00
2016,04,01,07,57,6.90
2016,04,01,07,58,7.00
2016,04,01,07,59,7.00
2016,04,01,08,00,7.00
2016,04,01,08,01,7.00
2016,04,01,08,02,7.10
2016,04,01,08,03,7.10
2016,04,01,08,04,7.10
2016,04,01,08,05,7.20
2016,04,01,08,06,7.20
2016,04,01,08,07,7.30
2016,04,01,08,08,7.40
2016,04,01,08,09,7.50
2016,04,01,08,10,7.60
2016,04,01,08,11,7.70
2016,04,01,08,12,7.70
2016,04,01,08,13,7.80
2016,04,01,08,14,7.90
2016,04,01,08,15,7.90
2016,04,01,08,16,8.00
2016,04,01,08,17,8.00
2016,04,01,08,18,8.10
2016,04,01,08,19,8.10
2016,04,01,08,20,8.10
2016,04,01,08,21,8.20
2016,04,01,08,22,8.30
2016,04,01,08,23,8.30
2016,04,01,08,24,8.40
2016,04,01,08,25,8.50
2016,04,01,08,26,8.50
2016,04,01,08,27,8.60
2016,04,01,08,28,8.70
2016,04,01,08,29,8.70
2016,04,01,08,30,8.80
2016,04,01,08,31,8.90
2016,04,01,08,32,8.90
2016,04,01,08,33,9.00
2016,04,01,08,34,9.10
2016,04,01,08,35,9.20
2016,04,01,08,36,9.30
2016,04,01,08,37,9.40
2016,04,01,08,38,9.40
2016,04,01,08,39,9.50
2016,04,01,08,40,9.60
2016,04,01,08,41,9.60
2016,04,01,08,42,9.60
2016,04,01,08,43,9.70
2016,04,01,08,44,9.70
2016,04,01,08,45,9.80
2016,04,01,08,46,9.80
2016,04,01,08,47,9.90
2016,04,01,08,48,9.90
2016,04,01,08,49,9.90
2016,04,01,08,50,10.00
2016,04,01,08,51,10.00
2016,04,01,08,52,10.10
2016,04,01,08,53,10.20
2016,04,01,08,54,10.20
2016,04,01,08,55,10.30
2016,04,01,08,56,10.30
2016,04,01,08,57,10.40
2016,04,01,08,58,10.40
2016,04,01,08,59,10.40
2016,04,01,09,00,10.40
2016,04,01,09,01,10.50
2016,04,01,09,02,10.50
2016,04,01,09,03,10.60
2016,04,01,09,04,10.60
2016,04,01,09,05,10.60
2016,04,01,09,06,10.60
2016,04,01,09,07,10.70
2016,04,01,09,08,10.70
2016,04,01,09,09,10.80
2016,04,01,09,10,10.80
2016,04,01,09,11,10.90
2016,04,01,09,12,11.00
2016,04,01,09,13,11.00
2016,04,01,09,14,11.10
2016,04,01,09,15,11.10
2016,04,01,09,16,11.20
2016,04,01,09,17,11.20
2016,04,01,09,18,11.30
2016,04,01,09,19,11.30
2016,04,01,09,20,11.40
2016,04,01,09,21,11.40
2016,04,01,09,22,11.50
2016,04,01,09,23,11.50
2016,04,01,09,24,11.50
2016,04,01,09,25,11.50
2016,04,01,09,26,11.60
2016,04,01,09,27,11.60
2016,04,01,09,28,11.60
2016,04,01,09,29,11.60
2016,04,01,09,30,11.70
2016,04,01,09,31,11.70
2016,04,01,09,32,11.70
2016,04,01,09,33,11.80
2016,04,01,09,34,11.80
2016,04,01,09,35,11.90
2016,04,01,09,36,12.00
2016,04,01,09,37,12.10
2016,04,01,09,38,12.10
2016,04,01,09,39,12.20
2016,04,01,09,40,12.20
2016,04,01,09,41,12.20
2016,04,01,09,42,12.30
2016,04,01,09,43,12.30
2016,04,01,09,44,12.40
2016,04,01,09,45,12.40
2016,04,01,09,46,12.50
2016,04,01,09,47,12.60
2016,04,01,09,48,12.70
2016,04,01,09,49,12.80
2016,04,01,09,50,12.80
2016,04,01,09,51,12.90
2016,04,01,09,52,13.00
2016,04,01,09,53,13.10
2016,04,01,09,54,13.20
2016,04,01,09,55,13.30
2016,04,01,09,56,13.40
2016,04,01,09,57,13.50
2016,04,01,09,58,13.50
2016,04,01,09,59,13.60
2016,04,01,10,00,13.60
2016,04,01,10,01,13.60
2016,04,01,10,02,13.60
2016,04,01,10,03,13.70
2016,04,01,10,04,13.60
2016,04,01,10,05,13.60
2016,04,01,10,06,13.60
2016,04,01,10,07,13.60
2016,04,01,10,08,13.60
2016,04,01,10,09,13.70
2016,04,01,10,10,13.70
2016,04,01,10,11,13.80
2016,04,01,10,12,13.80
2016,04,01,10,13,13.80
2016,04,01,10,14,13.80
2016,04,01,10,15,13.90
2016,04,01,10,16,13.90
2016,04,01,10,17,13.90
2016,04,01,10,18,13.90
2016,04,01,10,19,14.00
2016,04,01,10,20,14.00
2016,04,01,10,21,14.10
2016,04,01,10,22,14.10
2016,04,01,10,23,14.10
2016,04,01,10,24,14.10
2016,04,01,10,25,14.10
2016,04,01,10,26,14.20
2016,04,01,10,27,14.20
2016,04,01,10,28,14.20
2016,04,01,10,29,14.30
2016,04,01,10,30,14.30
2016,04,01,10,31,14.40
2016,04,01,10,32,14.40
2016,04,01,10,33,14.40
2016,04,01,10,34,14.40
2016,04,01,10,35,14.40
2016,04,01,10,36,14.40
2016,04,01,10,37,14.40
2016,04,01,10,38,14.30
2016,04,01,10,39,14.20
2016,04,01,10,40,14.20
2016,04,01,10,41,14.20
2016,04,01,10,42,14.10
2016,04,01,10,43,14.00
2016,04,01,10,44,13.90
2016,04,01,10,45,13.90
2016,04,01,10,46,13.80
2016,04,01,10,47,13.80
2016,04,01,10,48,13.80
2016,04,01,10,49,13.80
2016,04,01,10,50,13.80
2016,04,01,10,51,13.80
2016,04,01,10,52,13.80
2016,04,01,10,53,13.80
2016,04,01,10,54,13.70
2016,04,01,10,55,13.80
2016,04,01,10,56,13.80
2016,04,01,10,57,13.80
2016,04,01,10,58,13.90
2016,04,01,10,59,13.90
2016,04,01,11,00,14.00
2016,04,01,11,01,14.10
2016,04,01,11,02,14.10
2016,04,01,11,03,14.20
2016,04,01,11,04,14.20
2016,04,01,11,05,14.30
2016,04,01,11,06,14.30
2016,04,01,11,07,14.40
2016,04,01,11,08,14.40
2016,04,01,11,09,14.40
2016,04,01,11,10,14.40
2016,04,01,11,11,14.40
2016,04,01,11,12,14.40
2016,04,01,11,13,14.50
2016,04,01,11,14,14.50
2016,04,01,11,15,14.40
2016,04,01,11,16,14.50
2016,04,01,11,17,14.50
2016,04,01,11,18,14.60
2016,04,01,11,19,14.70
2016,04,01,11,20,14.80
2016,04,01,11,21,14.80
2016,04,01,11,22,14.90
2016,04,01,11,23,14.90
2016,04,01,11,24,14.80
2016,04,01,11,25,14.80
2016,04,01,11,26,14.80
2016,04,01,11,27,14.80
2016,04,01,11,28,14.70
2016,04,01,11,29,14.70
2016,04,01,11,30,14.70
2016,04,01,11,31,14.80
2016,04,01,11,32,14.80
2016,04,01,11,33,14.90
2016,04,01,11,34,15.00
2016,04,01,11,35,15.10
2016,04,01,11,36,15.10
2016,04,01,11,37,15.10
2016,04,01,11,38,15.20
2016,04,01,11,39,15.20
2016,04,01,11,40,15.20
2016,04,01,11,41,15.20
2016,04,01,11,42,15.10
2016,04,01,11,43,15.10
2016,04,01,11,44,15.10
2016,04,01,11,45,15.10
2016,04,01,11,46,15.10
2016,04,01,11,47,15.10
2016,04,01,11,48,15.10
2016,04,01,11,49,15.20
2016,04,01,11,50,15.20
2016,04,01,11,51,15.20
2016,04,01,11,52,15.20
2016,04,01,11,53,15.20
2016,04,01,11,54,15.20
2016,04,01,11,55,15.30
2016,04,01,11,56,15.30
2016,04,01,11,57,15.30
2016,04,01,11,58,15.30
2016,04,01,11,59,15.30
2016,04,01,12,00,15.30
2016,04,01,12,01,15.30
2016,04,01,12,02,15.30
2016,04,01,12,03,15.30
2016,04,01,12,04,15.40
2016,04,01,12,05,15.40
2016,04,01,12,06,15.50
2016,04,01,12,07,15.60
2016,04,01,12,08,15.60
2016,04,01,12,09,15.80
2016,04,01,12,10,15.90
2016,04,01,12,11,15.90
2016,04,01,12,12,16.00
2016,04,01,12,13,16.00
2016,04,01,12,14,16.10
2016,04,01,12,15,16.10
2016,04,01,12,16,16.20
2016,04,01,12,17,16.20
2016,04,01,12,18,16.30
2016,04,01,12,19,16.30
2016,04,01,12,20,16.30
2016,04,01,12,21,16.30
2016,04,01,12,22,16.20
2016,04,01,12,23,16.10
2016,04,01,12,24,16.10
2016,04,01,12,25,16.00
2016,04,01,12,26,15.80
2016,04,01,12,27,15.70
2016,04,01,12,28,15.60
2016,04,01,12,29,15.50
2016,04,01,12,30,15.40
2016,04,01,12,31,15.40
2016,04,01,12,32,15.30
2016,04,01,12,33,15.30
2016,04,01,12,34,15.30
2016,04,01,12,35,15.40
2016,04,01,12,36,15.40
2016,04,01,12,37,15.50
2016,04,01,12,38,15.60
2016,04,01,12,39,15.50
2016,04,01,12,40,15.50
2016,04,01,12,41,15.50
2016,04,01,12,42,15.50
2016,04,01,12,43,15.40
2016,04,01,12,44,15.50
2016,04,01,12,45,15.40
2016,04,01,12,46,15.50
2016,04,01,12,47,15.40
2016,04,01,12,48,15.40
2016,04,01,12,49,15.50
2016,04,01,12,50,15.60
2016,04,01,12,51,15.60
2016,04,01,12,52,15.60
2016,04,01,12,53,15.60
2016,04,01,12,54,15.60
2016,04,01,12,55,15.50
2016,04,01,12,56,15.60
2016,04,01,12,57,15.60
2016,04,01,12,58,15.60
2016,04,01,12,59,15.60
2016,04,01,13,00,15.70
2016,04,01,13,01,15.70
2016,04,01,13,02,15.80
2016,04,01,13,03,15.80
2016,04,01,13,04,15.80
2016,04,01,13,05,15.70
2016,04,01,13,06,15.60
2016,04,01,13,07,15.40
2016,04,01,13,08,15.40
2016,04,01,13,09,15.40
2016,04,01,13,10,15.40
2016,04,01,13,11,15.50
2016,04,01,13,12,15.60
2016,04,01,13,13,15.60
2016,04,01,13,14,15.60
2016,04,01,13,15,15.70
2016,04,01,13,16,15.70
2016,04,01,13,17,15.80
2016,04,01,13,18,15.80
2016,04,01,13,19,15.80
2016,04,01,13,20,15.80
2016,04,01,13,21,15.80
2016,04,01,13,22,15.70
2016,04,01,13,23,15.60
2016,04,01,13,24,15.50
2016,04,01,13,25,15.50
2016,04,01,13,26,15.50
2016,04,01,13,27,15.60
2016,04,01,13,28,15.60
2016,04,01,13,29,15.60
2016,04,01,13,30,15.60
2016,04,01,13,31,15.60
2016,04,01,13,32,15.60
2016,04,01,13,33,15.60
2016,04,01,13,34,15.70
2016,04,01,13,35,15.70
2016,04,01,13,36,15.70
2016,04,01,13,37,15.70
2016,04,01,13,38,15.60
2016,04,01,13,39,15.60
2016,04,01,13,40,15.50
2016,04,01,13,41,15.50
2016,04,01,13,42,15.50
2016,04,01,13,43,15.60
2016,04,01,13,44,15.70
2016,04,01,13,45,15.70
2016,04,01,13,46,15.70
2016,04,01,13,47,15.70
2016,04,01,13,48,15.70
2016,04,01,13,49,15.70
2016,04,01,13,50,15.80
2016,04,01,13,51,15.80
2016,04,01,13,52,15.90
2016,04,01,13,53,16.00
2016,04,01,13,54,16.10
2016,04,01,13,55,16.10
2016,04,01,13,56,16.10
2016,04,01,13,57,16.10
2016,04,01,13,58,16.20
2016,04,01,13,59,16.20
2016,04,01,14,00,16.20
2016,04,01,14,01,16.30
2016,04,01,14,02,16.30
2016,04,01,14,03,16.40
2016,04,01,14,04,16.50
2016,04,01,14,05,16.60
2016,04,01,14,06,16.60
2016,04,01,14,07,16.70
2016,04,01,14,08,16.70
2016,04,01,14,09,16.70
2016,04,01,14,10,16.70
2016,04,01,14,11,16.60
2016,04,01,14,12,16.60
2016,04,01,14,13,16.70
2016,04,01,14,14,16.70
2016,04,01,14,15,16.70
2016,04,01,14,16,16.70
2016,04,01,14,17,16.60
2016,04,01,14,18,16.60
2016,04,01,14,19,16.60
2016,04,01,14,20,16.60
2016,04,01,14,21,16.60
2016,04,01,14,22,16.60
2016,04,01,14,23,16.60
2016,04,01,14,24,16.70
2016,04,01,14,25,16.70
2016,04,01,14,26,16.70
2016,04,01,14,27,16.70
2016,04,01,14,28,16.70
2016,04,01,14,29,16.80
2016,04,01,14,30,16.80
2016,04,01,14,31,16.90
2016,04,01,14,32,16.90
2016,04,01,14,33,16.90
2016,04,01,14,34,16.80
2016,04,01,14,35,16.80
2016,04,01,14,36,16.80
2016,04,01,14,37,16.90
2016,04,01,14,38,16.90
2016,04,01,14,39,16.90
2016,04,01,14,40,17.00
2016,04,01,14,41,17.10
2016,04,01,14,42,17.10
2016,04,01,14,43,17.20
2016,04,01,14,44,17.10
2016,04,01,14,45,17.00
2016,04,01,14,46,17.00
2016,04,01,14,47,16.90
2016,04,01,14,48,16.80
2016,04,01,14,49,16.90
2016,04,01,14,50,16.90
2016,04,01,14,51,16.90
2016,04,01,14,52,16.90
2016,04,01,14,53,17.00
2016,04,01,14,54,17.00
2016,04,01,14,55,17.00
2016,04,01,14,56,17.00
2016,04,01,14,57,16.90
2016,04,01,14,58,16.90
2016,04,01,14,59,16.90
2016,04,01,15,00,16.90
2016,04,01,15,01,16.90
2016,04,01,15,02,16.90
2016,04,01,15,03,16.90
2016,04,01,15,04,16.80
2016,04,01,15,05,16.70
2016,04,01,15,06,16.70
2016,04,01,15,07,16.60
2016,04,01,15,08,16.60
2016,04,01,15,09,16.60
2016,04,01,15,10,16.60
2016,04,01,15,11,16.70
2016,04,01,15,12,16.70
2016,04,01,15,13,16.70
2016,04,01,15,14,16.70
2016,04,01,15,15,16.80
2016,04,01,15,16,16.90
2016,04,01,15,17,17.00
2016,04,01,15,18,17.00
2016,04,01,15,19,17.00
2016,04,01,15,20,17.00
2016,04,01,15,21,17.00
2016,04,01,15,22,17.10
2016,04,01,15,23,17.10
2016,04,01,15,24,17.10
2016,04,01,15,25,17.10
2016,04,01,15,26,17.20
2016,04,01,15,27,17.20
2016,04,01,15,28,17.30
2016,04,01,15,29,17.40
2016,04,01,15,30,17.40
2016,04,01,15,31,17.30
2016,04,01,15,32,17.20
2016,04,01,15,33,17.00
2016,04,01,15,34,17.00
2016,04,01,15,35,16.90
2016,04,01,15,36,16.80
2016,04,01,15,37,16.80
2016,04,01,15,38,16.80
2016,04,01,15,39,16.70
2016,04,01,15,40,16.80
2016,04,01,15,41,16.80
2016,04,01,15,42,16.80
2016,04,01,15,43,16.80
2016,04,01,15,44,16.80
2016,04,01,15,45,16.80
2016,04,01,15,46,16.80
2016,04,01,15,47,16.80
2016,04,01,15,48,16.90
2016,04,01,15,49,16.80
2016,04,01,15,50,16.80
2016,04,01,15,51,16.90
2016,04,01,15,52,16.80
2016,04,01,15,53,16.80
2016,04,01,15,54,16.80
2016,04,01,15,55,16.80
2016,04,01,15,56,16.90
2016,04,01,15,57,17.00
2016,04,01,15,58,17.10
2016,04,01,15,59,17.10
2016,04,01,16,00,17.00
2016,04,01,16,01,16.90
2016,04,01,16,02,16.90
2016,04,01,16,03,16.90
2016,04,01,16,04,16.90
2016,04,01,16,05,16.90
2016,04,01,16,06,16.90
2016,04,01,16,07,16.90
2016,04,01,16,08,17.00
2016,04,01,16,09,17.10
2016,04,01,16,10,17.20
2016,04,01,16,11,17.20
2016,04,01,16,12,17.30
2016,04,01,16,13,17.40
2016,04,01,16,14,17.40
2016,04,01,16,15,17.50
2016,04,01,16,16,17.50
2016,04,01,16,17,17.40
2016,04,01,16,18,17.40
2016,04,01,16,19,17.40
2016,04,01,16,20,17.30
2016,04,01,16,21,17.30
2016,04,01,16,22,17.30
2016,04,01,16,23,17.30
2016,04,01,16,24,17.30
2016,04,01,16,25,17.30
2016,04,01,16,26,17.40
2016,04,01,16,27,17.40
2016,04,01,16,28,17.50
2016,04,01,16,29,17.50
2016,04,01,16,30,17.60
2016,04,01,16,31,17.60
2016,04,01,16,32,17.60
2016,04,01,16,33,17.60
2016,04,01,16,34,17.60
2016,04,01,16,35,17.60
2016,04,01,16,36,17.60
2016,04,01,16,37,17.70
2016,04,01,16,38,17.70
2016,04,01,16,39,17.80
2016,04,01,16,40,17.80
2016,04,01,16,41,17.90
2016,04,01,16,42,17.90
2016,04,01,16,43,17.90
2016,04,01,16,44,17.90
2016,04,01,16,45,17.80
2016,04,01,16,46,17.80
2016,04,01,16,47,17.80
2016,04,01,16,48,17.90
2016,04,01,16,49,17.90
2016,04,01,16,50,18.00
2016,04,01,16,51,18.00
2016,04,01,16,52,18.10
2016,04,01,16,53,18.10
2016,04,01,16,54,18.20
2016,04,01,16,55,18.10
2016,04,01,16,56,18.20
2016,04,01,16,57,18.20
2016,04,01,16,58,18.20
2016,04,01,16,59,18.20
2016,04,01,17,00,18.30
2016,04,01,17,01,18.30
2016,04,01,17,02,18.30
2016,04,01,17,03,18.30
2016,04,01,17,04,18.30
2016,04,01,17,05,18.30
2016,04,01,17,06,18.20
2016,04,01,17,07,18.20
2016,04,01,17,08,18.10
2016,04,01,17,09,18.10
2016,04,01,17,10,18.10
2016,04,01,17,11,18.10
2016,04,01,17,12,18.10
2016,04,01,17,13,18.20
2016,04,01,17,14,18.20
2016,04,01,17,15,18.20
2016,04,01,17,16,18.20
2016,04,01,17,17,18.20
2016,04,01,17,18,18.20
2016,04,01,17,19,18.20
2016,04,01,17,20,18.20
2016,04,01,17,21,18.20
2016,04,01,17,22,18.20
2016,04,01,17,23,18.10
2016,04,01,17,24,18.10
2016,04,01,17,25,18.10
2016,04,01,17,26,18.00
2016,04,01,17,27,18.00
2016,04,01,17,28,17.90
2016,04,01,17,29,17.90
2016,04,01,17,30,17.90
2016,04,01,17,31,17.90
2016,04,01,17,32,18.00
2016,04,01,17,33,18.10
2016,04,01,17,34,18.10
2016,04,01,17,35,18.10
2016,04,01,17,36,18.10
2016,04,01,17,37,18.00
2016,04,01,17,38,18.00
2016,04,01,17,39,18.00
2016,04,01,17,40,18.10
2016,04,01,17,41,18.10